Weather History for KISN - November, 2013

Change the Weather History Date:

Monday, November 11, 2013

  Actual Average Record
Temperature  
Mean Temperature 15 °F 30 °F  
Max Temperature 24 °F 41 °F 63 °F (1999)
Min Temperature 5 °F 19 °F -10 °F (1940)
Degree Days  
Heating Degree Days 50 35  
Month to date heating degree days 370 357  
Since 1 July heating degree days 1279 1384  
Cooling Degree Days 0 0  
Month to date cooling degree days 0 0  
Year to date cooling degree days 405 456  
Moisture  
Dew Point 5 °F    
Average Humidity 63    
Maximum Humidity 87    
Minimum Humidity 38    
Precipitation  
Precipitation 0.00 in 0.02 in 0.25 in (1975)
Month to date precipitation 0.12 0.28  
Year to date precipitation 19.98 13.38  
Sea Level Pressure  
Sea Level Pressure 30.71 in    
Wind  
Wind Speed 7 mph (WSW)    
Max Wind Speed 16 mph    
Max Gust Speed 18 mph    
Visibility 10 miles    
Events      
T = Trace of Precipitation, MM = Missing Value Source: NWS Daily Summary

Daily Weather History Graph

Daily Weather History Graph

Search for Another Location

Airport or City:

Trip Planner

Search our weather history database for the weather conditions in past years. The results will help you decide how hot, cold, wet, or windy it might be!

Date:

Astronomy

Nov. 11, 2013 Rise Set
Actual Time 7:55 AM CST 5:20 PM CST
Civil Twilight 7:22 AM CST 5:54 PM CST
Nautical Twilight 6:44 AM CST 6:31 PM CST
Astronomical Twilight 6:08 AM CST 7:08 PM CST
Moon 2:27 PM CST (11/11) 1:15 AM CST (11/11)
Length of Visible Light 10h 32m
Length of Day
9h 24m
Waxing Gibbous, 66% of the Moon is Illuminated
Nov 11
Waxing Gibbous
Nov 17
Full
Nov 25
Last Quarter
Dec 2
New
Dec 9
First Quarter

Hourly Weather History & Observations

Time (CST) Temp. Windchill Dew Point Humidity Pressure Visibility Wind Dir Wind Speed Gust Speed Precip Events Conditions
12:52 AM 14.0 °F -0.8 °F 3.0 °F 62% 30.57 in 10.0 mi North 13.8 mph - N/A   Partly Cloudy
1:52 AM 12.9 °F -1.6 °F 3.0 °F 65% 30.60 in 10.0 mi NNE 12.7 mph - N/A   Mostly Cloudy
2:52 AM 10.9 °F -2.6 °F 3.9 °F 73% 30.62 in 10.0 mi North 10.4 mph - N/A   Mostly Cloudy
3:52 AM 9.0 °F -3.2 °F 3.0 °F 77% 30.64 in 10.0 mi NNE 8.1 mph - N/A   Clear
4:52 AM 8.1 °F -3.2 °F 3.0 °F 80% 30.67 in 10.0 mi NNE 6.9 mph - N/A   Clear
5:52 AM 6.1 °F -2.8 °F 1.9 °F 83% 30.69 in 10.0 mi North 4.6 mph - N/A   Clear
6:52 AM 5.0 °F -6.9 °F 1.0 °F 84% 30.71 in 10.0 mi NNE 6.9 mph - N/A   Clear
7:52 AM 5.0 °F -4.1 °F -0.0 °F 80% 30.73 in 10.0 mi North 4.6 mph - N/A   Clear
8:52 AM 8.1 °F 1.4 °F 1.9 °F 76% 30.76 in 10.0 mi NNE 3.5 mph - N/A   Clear
9:52 AM 10.9 °F - 1.9 °F 67% 30.76 in 10.0 mi Calm Calm - N/A   Clear
10:52 AM 12.9 °F - 3.0 °F 65% 30.76 in 10.0 mi Calm Calm - N/A   Clear
11:52 AM 17.1 °F - 3.0 °F 54% 30.75 in 10.0 mi Calm Calm - N/A   Clear
12:52 PM 21.0 °F 14.6 °F 1.9 °F 44% 30.74 in 10.0 mi Variable 4.6 mph - N/A   Clear
1:52 PM 23.0 °F 13.1 °F -0.9 °F 35% 30.74 in 10.0 mi SSW 9.2 mph - N/A   Clear
2:52 PM 23.0 °F 17.0 °F 1.0 °F 39% 30.73 in 10.0 mi SW 4.6 mph - N/A   Clear
3:52 PM 24.1 °F 14.4 °F 5.0 °F 44% 30.72 in 10.0 mi SW 9.2 mph - N/A   Clear
4:52 PM 23.0 °F 14.7 °F 7.0 °F 50% 30.72 in 10.0 mi SW 6.9 mph - N/A   Clear
5:52 PM 19.9 °F 14.9 °F 8.1 °F 60% 30.74 in 10.0 mi SSW 3.5 mph - N/A   Clear
6:52 PM 19.9 °F 14.9 °F 8.1 °F 60% 30.73 in 10.0 mi SSW 3.5 mph - N/A   Clear
7:52 PM 16.0 °F 10.4 °F 8.1 °F 71% 30.75 in 10.0 mi South 3.5 mph - N/A   Clear
8:52 PM 16.0 °F 10.4 °F 9.0 °F 74% 30.74 in 10.0 mi SSW 3.5 mph - N/A   Clear
9:52 PM 15.1 °F 7.7 °F 9.0 °F 77% 30.72 in 10.0 mi SSW 4.6 mph - N/A   Clear
10:52 PM 15.1 °F 6.4 °F 10.0 °F 80% 30.71 in 10.0 mi SW 5.8 mph - N/A   Clear
11:52 PM 15.1 °F 9.4 °F 10.0 °F 80% 30.69 in 10.0 mi South 3.5 mph - N/A   Clear